Time,TemperatureF,DewpointF,PressureIn,WindDirection,WindDirectionDegrees,WindSpeedMPH,WindSpeedGustMPH,Humidity,HourlyPrecipIn,Conditions,Clouds,dailyrainin,SoftwareType,DateUTC
2013-07-27 00:00:00,69.1,30.8,30.22,NW,324,0.0,0.0,24,0.00,,SCT,0.00,VWS V14.01,2013-07-27 07:00:00,
2013-07-27 00:05:00,68.9,30.6,30.22,NW,324,0.0,0.0,24,0.00,,SCT,0.00,VWS V14.01,2013-07-27 07:05:00,
2013-07-27 00:10:00,68.9,30.6,30.22,NW,324,0.0,0.0,24,0.00,,SCT,0.00,VWS V14.01,2013-07-27 07:10:00,
2013-07-27 00:15:00,68.9,30.6,30.22,NW,324,0.0,0.0,24,0.00,,SCT,0.00,VWS V14.01,2013-07-27 07:15:00,
2013-07-27 00:20:00,68.9,30.6,30.22,NW,324,0.0,0.0,24,0.00,,SCT,0.00,VWS V14.01,2013-07-27 07:20:00,
2013-07-27 00:26:00,68.9,30.6,30.19,NW,324,0.0,0.0,24,0.00,,SCT,0.00,VWS V14.01,2013-07-27 07:26:00,
2013-07-27 00:30:00,68.9,30.6,30.19,NW,324,0.0,0.0,24,0.00,,SCT,0.00,VWS V14.01,2013-07-27 07:30:00,
2013-07-27 00:31:00,68.7,30.5,30.19,NW,324,0.0,0.0,24,0.00,,SCT,0.00,VWS V14.01,2013-07-27 07:31:00,
2013-07-27 00:36:00,68.5,30.4,30.19,NW,324,0.0,0.0,24,0.00,,SCT,0.00,VWS V14.01,2013-07-27 07:36:00,
2013-07-27 00:41:00,68.2,30.0,30.19,NW,324,0.0,0.0,24,0.00,,SCT,0.00,VWS V14.01,2013-07-27 07:41:00,
2013-07-27 00:45:00,68.2,30.0,30.19,NW,324,0.0,0.0,24,0.00,,SCT,0.00,VWS V14.01,2013-07-27 07:45:00,
2013-07-27 00:46:00,68.2,30.0,30.19,NW,324,0.0,0.0,24,0.00,,SCT,0.00,VWS V14.01,2013-07-27 07:46:00,
2013-07-27 00:51:00,68.0,30.9,30.19,NW,324,0.0,0.0,25,0.00,,SCT,0.00,VWS V14.01,2013-07-27 07:51:00,
2013-07-27 00:56:00,68.0,30.9,30.19,East,98,0.0,0.0,25,0.00,,SCT,0.00,VWS V14.01,2013-07-27 07:56:00,
2013-07-27 01:00:00,68.0,30.9,30.19,East,99,0.0,0.0,25,0.00,,SCT,0.00,VWS V14.01,2013-07-27 08:00:00,
2013-07-27 01:01:00,68.0,30.9,30.19,ESE,102,0.0,0.0,25,0.00,,SCT,0.00,VWS V14.01,2013-07-27 08:01:00,
2013-07-27 01:07:00,67.8,31.7,30.19,East,83,0.0,0.0,26,0.00,,SCT,0.00,VWS V14.01,2013-07-27 08:07:00,
2013-07-27 01:12:00,67.6,31.6,30.19,ESE,104,0.0,0.0,26,0.00,,SCT,0.00,VWS V14.01,2013-07-27 08:12:00,
2013-07-27 01:15:00,67.6,31.6,30.19,ESE,104,0.0,0.0,26,0.00,,SCT,0.00,VWS V14.01,2013-07-27 08:15:00,
2013-07-27 01:17:00,67.5,31.4,30.19,East,98,0.0,0.0,26,0.00,,SCT,0.00,VWS V14.01,2013-07-27 08:17:00,
2013-07-27 01:22:00,67.3,31.2,30.19,East,98,0.0,0.0,26,0.00,,SCT,0.00,VWS V14.01,2013-07-27 08:22:00,
2013-07-27 01:27:00,67.3,31.2,30.19,East,97,0.0,0.0,26,0.00,,SCT,0.00,VWS V14.01,2013-07-27 08:27:00,
2013-07-27 01:30:00,67.3,31.2,30.19,East,97,0.0,0.0,26,0.00,,SCT,0.00,VWS V14.01,2013-07-27 08:30:00,
2013-07-27 01:32:00,67.1,31.1,30.19,East,97,0.0,0.0,26,0.00,,SCT,0.00,VWS V14.01,2013-07-27 08:32:00,
2013-07-27 01:37:00,66.9,31.9,30.19,East,97,0.0,0.0,27,0.00,,SCT,0.00,VWS V14.01,2013-07-27 08:37:00,
2013-07-27 01:42:00,66.6,31.6,30.19,East,96,0.0,0.0,27,0.00,,SCT,0.00,VWS V14.01,2013-07-27 08:42:00,
2013-07-27 01:45:00,66.6,31.6,30.19,East,96,0.0,0.0,27,0.00,,SCT,0.00,VWS V14.01,2013-07-27 08:45:00,
2013-07-27 01:47:00,66.4,31.4,30.19,East,95,0.0,0.0,27,0.00,,SCT,0.00,VWS V14.01,2013-07-27 08:47:00,
2013-07-27 01:52:00,66.4,30.5,30.19,East,95,0.0,0.0,26,0.00,,SCT,0.00,VWS V14.01,2013-07-27 08:52:00,
2013-07-27 01:57:00,66.0,31.1,30.19,East,95,0.0,0.0,27,0.00,,SCT,0.00,VWS V14.01,2013-07-27 08:57:00,
2013-07-27 02:00:00,66.0,31.1,30.19,East,95,0.0,0.0,27,0.00,,SCT,0.00,VWS V14.01,2013-07-27 09:00:00,
2013-07-27 02:02:00,65.7,30.8,30.19,ESE,112,0.0,0.0,27,0.00,,SCT,0.00,VWS V14.01,2013-07-27 09:02:00,
2013-07-27 02:07:00,65.7,30.8,30.19,ESE,106,0.0,0.0,27,0.00,,SCT,0.00,VWS V14.01,2013-07-27 09:07:00,
2013-07-27 02:12:00,65.5,30.6,30.19,ESE,106,0.0,0.0,27,0.00,,SCT,0.00,VWS V14.01,2013-07-27 09:12:00,
2013-07-27 02:15:00,65.5,30.6,30.19,ESE,106,0.0,0.0,27,0.00,,SCT,0.00,VWS V14.01,2013-07-27 09:15:00,
2013-07-27 02:18:00,65.5,30.6,30.19,East,92,0.0,0.0,27,0.00,,SCT,0.00,VWS V14.01,2013-07-27 09:18:00,
2013-07-27 02:23:00,65.5,30.6,30.19,East,92,0.0,0.0,27,0.00,,SCT,0.00,VWS V14.01,2013-07-27 09:23:00,
2013-07-27 02:28:00,65.3,29.6,30.19,East,92,0.0,0.0,26,0.00,,SCT,0.00,VWS V14.01,2013-07-27 09:28:00,
2013-07-27 02:30:00,65.3,29.6,30.19,East,92,0.0,0.0,26,0.00,,SCT,0.00,VWS V14.01,2013-07-27 09:30:00,
2013-07-27 02:33:00,65.3,29.6,30.19,East,92,0.0,0.0,26,0.00,,SCT,0.00,VWS V14.01,2013-07-27 09:33:00,
2013-07-27 02:35:00,65.3,29.6,30.19,East,92,0.0,0.0,26,0.00,,SCT,0.00,VWS V14.01,2013-07-27 09:35:00,
2013-07-27 02:40:00,65.5,29.7,30.19,East,92,0.0,0.0,26,0.00,,SCT,0.00,VWS V14.01,2013-07-27 09:40:00,
2013-07-27 02:45:00,65.5,29.7,30.19,East,97,0.0,0.0,26,0.00,,SCT,0.00,VWS V14.01,2013-07-27 09:45:00,
2013-07-27 02:50:00,65.5,29.7,30.19,ENE,76,0.0,0.0,26,0.00,,SCT,0.00,VWS V14.01,2013-07-27 09:50:00,
2013-07-27 02:55:00,65.3,29.6,30.19,ENE,76,0.0,0.0,26,0.00,,SCT,0.00,VWS V14.01,2013-07-27 09:55:00,
2013-07-27 03:00:00,65.1,29.4,30.19,ENE,76,0.0,0.0,26,0.00,,SCT,0.00,VWS V14.01,2013-07-27 10:00:00,
2013-07-27 03:05:00,64.9,29.3,30.19,ENE,76,0.0,0.0,26,0.00,,SCT,0.00,VWS V14.01,2013-07-27 10:05:00,
2013-07-27 03:10:00,64.8,29.1,30.19,ENE,76,0.0,0.0,26,0.00,,SCT,0.00,VWS V14.01,2013-07-27 10:10:00,
2013-07-27 03:15:00,64.6,29.0,30.19,ENE,76,0.0,0.0,26,0.00,,SCT,0.00,VWS V14.01,2013-07-27 10:15:00,
2013-07-27 03:21:00,64.4,28.8,30.19,ENE,76,0.0,0.0,26,0.00,,SCT,0.00,VWS V14.01,2013-07-27 10:21:00,
2013-07-27 03:26:00,64.4,28.8,30.19,ENE,76,0.0,0.0,26,0.00,,SCT,0.00,VWS V14.01,2013-07-27 10:26:00,
2013-07-27 03:30:00,64.4,28.8,30.19,ENE,76,0.0,0.0,26,0.00,,SCT,0.00,VWS V14.01,2013-07-27 10:30:00,
2013-07-27 03:31:00,64.2,29.6,30.19,ENE,76,0.0,0.0,27,0.00,,SCT,0.00,VWS V14.01,2013-07-27 10:31:00,
2013-07-27 03:36:00,64.0,29.4,30.19,ENE,76,0.0,0.0,27,0.00,,SCT,0.00,VWS V14.01,2013-07-27 10:36:00,
2013-07-27 03:41:00,63.9,30.1,30.19,ENE,76,0.0,0.0,28,0.00,,SCT,0.00,VWS V14.01,2013-07-27 10:41:00,
2013-07-27 03:45:00,63.9,30.1,30.19,ENE,76,0.0,0.0,28,0.00,,SCT,0.00,VWS V14.01,2013-07-27 10:45:00,
2013-07-27 03:46:00,63.9,30.1,30.19,ENE,76,0.0,0.0,28,0.00,,SCT,0.00,VWS V14.01,2013-07-27 10:46:00,
2013-07-27 03:51:00,63.7,30.0,30.19,ENE,76,0.0,0.0,28,0.00,,SCT,0.00,VWS V14.01,2013-07-27 10:51:00,
2013-07-27 03:56:00,63.5,29.8,30.19,ENE,77,0.0,0.0,28,0.00,,SCT,0.00,VWS V14.01,2013-07-27 10:56:00,
2013-07-27 04:00:00,63.5,29.8,30.19,ENE,77,0.0,0.0,28,0.00,,SCT,0.00,VWS V14.01,2013-07-27 11:00:00,
2013-07-27 04:01:00,63.1,29.5,30.19,ENE,77,0.0,0.0,28,0.00,,SCT,0.00,VWS V14.01,2013-07-27 11:01:00,
2013-07-27 04:06:00,63.0,29.4,30.19,ENE,77,0.0,0.0,28,0.00,,SCT,0.00,VWS V14.01,2013-07-27 11:06:00,
2013-07-27 04:11:00,62.6,29.1,30.19,SE,125,0.0,0.0,28,0.00,,SCT,0.00,VWS V14.01,2013-07-27 11:11:00,
2013-07-27 04:17:00,62.2,29.6,30.19,SE,130,0.0,0.0,29,0.00,,SCT,0.00,VWS V14.01,2013-07-27 11:17:00,
2013-07-27 04:22:00,61.9,32.5,30.19,SSE,157,0.0,0.0,33,0.00,,SCT,0.00,VWS V14.01,2013-07-27 11:22:00,
2013-07-27 04:27:00,61.5,33.6,30.19,South,189,0.0,0.0,35,0.00,,SCT,0.00,VWS V14.01,2013-07-27 11:27:00,
2013-07-27 04:30:00,61.5,33.6,30.19,ESE,118,0.0,0.0,35,0.00,,SCT,0.00,VWS V14.01,2013-07-27 11:30:00,
2013-07-27 04:32:00,61.3,34.9,30.19,SE,129,0.0,0.0,37,0.00,,SCT,0.00,VWS V14.01,2013-07-27 11:32:00,
2013-07-27 04:37:00,61.2,34.7,30.19,South,184,0.0,0.0,37,0.00,,SCT,0.00,VWS V14.01,2013-07-27 11:37:00,
2013-07-27 04:42:00,61.2,35.4,30.16,South,170,0.0,0.0,38,0.00,,SCT,0.00,VWS V14.01,2013-07-27 11:42:00,
2013-07-27 04:45:00,61.2,35.4,30.16,South,176,0.0,0.0,38,0.00,,SCT,0.00,VWS V14.01,2013-07-27 11:45:00,
2013-07-27 04:47:00,61.2,36.0,30.16,South,169,0.0,5.4,39,0.00,,SCT,0.00,VWS V14.01,2013-07-27 11:47:00,
2013-07-27 04:52:00,61.0,35.2,30.16,SE,133,0.0,5.4,38,0.00,,SCT,0.00,VWS V14.01,2013-07-27 11:52:00,
2013-07-27 04:57:00,61.0,35.2,30.19,SSW,197,0.0,0.0,38,0.00,,SCT,0.00,VWS V14.01,2013-07-27 11:57:00,
2013-07-27 05:00:00,61.0,35.9,30.19,SW,234,0.0,5.4,39,0.00,,SCT,0.00,VWS V14.01,2013-07-27 12:00:00,
2013-07-27 05:03:00,60.8,35.1,30.19,SW,227,0.0,5.4,38,0.00,,SCT,0.00,VWS V14.01,2013-07-27 12:03:00,
2013-07-27 05:08:00,60.6,35.5,30.19,SSE,166,0.0,5.4,39,0.00,,SCT,0.00,VWS V14.01,2013-07-27 12:08:00,
2013-07-27 05:13:00,60.4,36.0,30.19,ESE,120,0.0,4.0,40,0.00,,SCT,0.00,VWS V14.01,2013-07-27 12:13:00,
2013-07-27 05:15:00,60.4,35.4,30.19,SE,128,4.0,5.8,39,0.00,,SCT,0.00,VWS V14.01,2013-07-27 12:15:00,
2013-07-27 05:18:00,60.1,35.7,30.19,South,189,0.0,4.0,40,0.00,,SCT,0.00,VWS V14.01,2013-07-27 12:18:00,
2013-07-27 05:23:00,59.7,35.4,30.19,SE,126,3.1,4.0,40,0.00,,SCT,0.00,VWS V14.01,2013-07-27 12:23:00,
2013-07-27 05:28:00,59.5,37.0,30.19,SE,131,0.0,0.0,43,0.00,,SCT,0.00,VWS V14.01,2013-07-27 12:28:00,
2013-07-27 05:30:00,59.5,36.5,30.19,SW,214,0.0,4.0,42,0.00,,SCT,0.00,VWS V14.01,2013-07-27 12:30:00,
2013-07-27 05:33:00,59.4,36.9,30.19,SSE,150,0.0,0.0,43,0.00,,SCT,0.00,VWS V14.01,2013-07-27 12:33:00,
2013-07-27 05:38:00,59.2,36.7,30.19,WSW,257,0.0,0.0,43,0.00,,SCT,0.00,VWS V14.01,2013-07-27 12:38:00,
2013-07-27 05:43:00,58.8,37.0,30.19,SE,134,0.0,0.0,44,0.00,,SCT,0.00,VWS V14.01,2013-07-27 12:43:00,
2013-07-27 05:45:00,59.0,36.6,30.19,SSW,193,0.0,0.0,43,0.00,,SCT,0.00,VWS V14.01,2013-07-27 12:45:00,
2013-07-27 05:48:00,58.6,37.4,30.19,South,188,0.0,0.0,45,0.00,,SCT,0.00,VWS V14.01,2013-07-27 12:48:00,
2013-07-27 05:53:00,58.6,37.4,30.16,SE,125,0.0,0.0,45,0.00,,SCT,0.00,VWS V14.01,2013-07-27 12:53:00,
2013-07-27 05:59:00,58.6,37.4,30.16,WNW,287,0.0,0.0,45,0.00,,SCT,0.00,VWS V14.01,2013-07-27 12:59:00,
2013-07-27 06:00:00,58.6,37.4,30.16,WSW,246,0.0,0.0,45,0.00,,SCT,0.00,VWS V14.01,2013-07-27 13:00:00,
2013-07-27 06:04:00,58.6,37.9,30.16,South,176,0.0,0.0,46,0.00,,SCT,0.00,VWS V14.01,2013-07-27 13:04:00,
2013-07-27 06:22:00,59.4,37.5,30.19,SSE,152,0.0,0.0,44,0.00,,SCT,0.00,VWS V14.01,2013-07-27 13:22:00,
2013-07-27 06:27:00,59.5,37.0,30.19,SE,133,0.0,0.0,43,0.00,,SCT,0.00,VWS V14.01,2013-07-27 13:27:00,
2013-07-27 06:32:00,59.5,36.5,30.19,South,188,0.0,0.0,42,0.00,,SCT,0.00,VWS V14.01,2013-07-27 13:32:00,
2013-07-27 06:37:00,59.7,36.0,30.19,NNW,343,0.0,0.0,41,0.00,,SCT,0.00,VWS V14.01,2013-07-27 13:37:00,
2013-07-27 06:42:00,59.7,35.4,30.19,South,183,0.0,0.0,40,0.00,,SCT,0.00,VWS V14.01,2013-07-27 13:42:00,
2013-07-27 06:47:00,59.9,33.6,30.19,WSW,254,0.0,5.4,37,0.00,,SCT,0.00,VWS V14.01,2013-07-27 13:47:00,
2013-07-27 06:52:00,59.9,32.9,30.19,South,173,0.0,5.4,36,0.00,,SCT,0.00,VWS V14.01,2013-07-27 13:52:00,
2013-07-27 06:57:00,60.1,32.4,30.19,SW,217,0.0,0.0,35,0.00,,SCT,0.00,VWS V14.01,2013-07-27 13:57:00,
2013-07-27 07:02:00,60.3,32.5,30.19,South,170,0.0,0.0,35,0.00,,SCT,0.00,VWS V14.01,2013-07-27 14:02:00,
2013-07-27 07:07:00,60.6,32.8,30.19,South,169,0.0,0.0,35,0.00,,SCT,0.00,VWS V14.01,2013-07-27 14:07:00,
2013-07-27 07:13:00,60.6,32.1,30.19,South,169,0.0,0.0,34,0.00,,SCT,0.00,VWS V14.01,2013-07-27 14:13:00,
2013-07-27 07:18:00,60.6,32.1,30.19,South,169,0.0,0.0,34,0.00,,SCT,0.00,VWS V14.01,2013-07-27 14:18:00,
2013-07-27 07:23:00,60.4,32.0,30.19,South,170,0.0,0.0,34,0.00,,SCT,0.00,VWS V14.01,2013-07-27 14:23:00,
2013-07-27 07:28:00,60.4,31.2,30.19,South,169,0.0,0.0,33,0.00,,SCT,0.00,VWS V14.01,2013-07-27 14:28:00,
2013-07-27 07:33:00,60.4,31.2,30.19,South,173,0.0,0.0,33,0.00,,SCT,0.00,VWS V14.01,2013-07-27 14:33:00,
2013-07-27 07:38:00,60.6,32.1,30.19,South,173,0.0,0.0,34,0.00,,SCT,0.00,VWS V14.01,2013-07-27 14:38:00,
2013-07-27 07:43:00,60.8,32.3,30.19,South,174,0.0,0.0,34,0.00,,SCT,0.00,VWS V14.01,2013-07-27 14:43:00,
2013-07-27 07:48:00,61.0,33.2,30.19,ESE,119,0.0,0.0,35,0.00,,SCT,0.00,VWS V14.01,2013-07-27 14:48:00,
2013-07-27 07:53:00,61.2,33.3,30.19,South,191,4.9,4.9,35,0.00,,SCT,0.00,VWS V14.01,2013-07-27 14:53:00,
2013-07-27 07:58:00,61.2,33.3,30.19,SW,233,0.0,2.2,35,0.00,,SCT,0.00,VWS V14.01,2013-07-27 14:58:00,
2013-07-27 08:03:00,61.2,33.3,30.19,SE,142,0.0,2.2,35,0.00,,SCT,0.00,VWS V14.01,2013-07-27 15:03:00,
2013-07-27 08:08:00,61.3,34.2,30.19,SSW,192,0.0,2.2,36,0.00,,SCT,0.00,VWS V14.01,2013-07-27 15:08:00,
2013-07-27 08:13:00,61.3,34.2,30.19,SE,146,4.0,4.5,36,0.00,,SCT,0.00,VWS V14.01,2013-07-27 15:13:00,
2013-07-27 08:18:00,61.5,34.3,30.19,South,182,0.0,4.5,36,0.00,,SCT,0.00,VWS V14.01,2013-07-27 15:18:00,
2013-07-27 08:23:00,61.7,36.5,30.19,East,87,0.0,4.5,39,0.00,,SCT,0.00,VWS V14.01,2013-07-27 15:23:00,
2013-07-27 08:29:00,61.9,36.7,30.19,East,87,0.0,0.0,39,0.00,,SCT,0.00,VWS V14.01,2013-07-27 15:29:00,
2013-07-27 08:34:00,62.4,37.8,30.19,SSW,206,0.0,0.0,40,0.00,,SCT,0.00,VWS V14.01,2013-07-27 15:34:00,
2013-07-27 08:39:00,63.0,37.0,30.19,SE,126,0.0,0.0,38,0.00,,SCT,0.00,VWS V14.01,2013-07-27 15:39:00,
2013-07-27 08:44:00,63.3,36.6,30.19,SSW,194,0.0,0.0,37,0.00,,SCT,0.00,VWS V14.01,2013-07-27 15:44:00,
2013-07-27 08:49:00,63.5,37.5,30.19,SSE,153,0.0,0.0,38,0.00,,SCT,0.00,VWS V14.01,2013-07-27 15:49:00,
2013-07-27 08:54:00,63.9,37.1,30.19,East,85,0.0,0.0,37,0.00,,SCT,0.00,VWS V14.01,2013-07-27 15:54:00,
2013-07-27 08:59:00,64.2,36.7,30.19,ESE,116,0.0,0.0,36,0.00,,SCT,0.00,VWS V14.01,2013-07-27 15:59:00,
2013-07-27 09:04:00,64.6,37.0,30.19,East,88,0.0,0.0,36,0.00,,SCT,0.00,VWS V14.01,2013-07-27 16:04:00,
2013-07-27 09:09:00,64.9,37.4,30.19,SSW,210,0.0,0.0,36,0.00,,SCT,0.00,VWS V14.01,2013-07-27 16:09:00,
2013-07-27 09:14:00,65.1,36.1,30.19,SSE,155,0.0,0.0,34,0.00,,SCT,0.00,VWS V14.01,2013-07-27 16:14:00,
2013-07-27 09:19:00,65.5,36.4,30.19,SSE,155,0.0,0.0,34,0.00,,SCT,0.00,VWS V14.01,2013-07-27 16:19:00,
2013-07-27 09:24:00,65.8,36.0,30.16,North,0,0.0,0.0,33,0.00,,SCT,0.00,VWS V14.01,2013-07-27 16:24:00,
2013-07-27 09:29:00,66.4,34.9,30.16,NW,324,0.0,0.0,31,0.00,,SCT,0.00,VWS V14.01,2013-07-27 16:29:00,
2013-07-27 09:34:00,66.9,35.3,30.16,NNW,328,0.0,0.0,31,0.00,,SCT,0.00,VWS V14.01,2013-07-27 16:34:00,
2013-07-27 09:40:00,67.5,34.1,30.16,West,273,0.0,0.0,29,0.00,,SCT,0.00,VWS V14.01,2013-07-27 16:40:00,
2013-07-27 09:45:00,67.8,34.4,30.16,NNW,339,0.0,0.0,29,0.00,,SCT,0.00,VWS V14.01,2013-07-27 16:45:00,
2013-07-27 09:50:00,68.4,34.0,30.16,North,1,0.0,0.0,28,0.00,,SCT,0.00,VWS V14.01,2013-07-27 16:50:00,
2013-07-27 09:55:00,68.7,33.4,30.16,NW,307,3.1,6.7,27,0.00,,SCT,0.00,VWS V14.01,2013-07-27 16:55:00,
2013-07-27 10:00:00,68.9,33.6,30.16,WSW,239,0.0,0.0,27,0.00,,SCT,0.00,VWS V14.01,2013-07-27 17:00:00,
2013-07-27 10:05:00,69.4,34.0,30.16,NNW,337,0.0,0.0,27,0.00,,SCT,0.00,VWS V14.01,2013-07-27 17:05:00,
2013-07-27 10:10:00,70.0,34.5,30.16,West,270,0.0,0.0,27,0.00,,SCT,0.00,VWS V14.01,2013-07-27 17:10:00,
2013-07-27 10:15:00,70.2,33.7,30.16,NNW,333,0.0,0.0,26,0.00,,SCT,0.00,VWS V14.01,2013-07-27 17:15:00,
2013-07-27 10:20:00,70.7,33.2,30.16,WNW,302,3.1,7.6,25,0.00,,SCT,0.00,VWS V14.01,2013-07-27 17:20:00,
2013-07-27 10:25:00,70.7,33.2,30.16,WNW,299,0.0,7.6,25,0.00,,SCT,0.00,VWS V14.01,2013-07-27 17:25:00,
2013-07-27 10:30:00,71.2,33.6,30.16,NW,308,0.0,0.0,25,0.00,,SCT,0.00,VWS V14.01,2013-07-27 17:30:00,
2013-07-27 10:35:00,71.6,32.9,30.16,NW,322,0.0,5.8,24,0.00,,SCT,0.00,VWS V14.01,2013-07-27 17:35:00,
2013-07-27 10:40:00,71.6,34.0,30.16,WSW,248,0.0,6.3,25,0.00,,SCT,0.00,VWS V14.01,2013-07-27 17:40:00,
2013-07-27 10:46:00,72.1,34.4,30.16,SSW,208,0.0,0.0,25,0.00,,SCT,0.00,VWS V14.01,2013-07-27 17:46:00,
2013-07-27 10:51:00,72.7,34.9,30.16,NNW,337,0.0,0.0,25,0.00,,SCT,0.00,VWS V14.01,2013-07-27 17:51:00,
2013-07-27 10:56:00,73.0,34.1,30.14,North,0,0.0,4.9,24,0.00,,SCT,0.00,VWS V14.01,2013-07-27 17:56:00,
2013-07-27 11:01:00,73.4,33.4,30.14,NNW,332,0.0,0.0,23,0.00,,SCT,0.00,VWS V14.01,2013-07-27 18:01:00,
2013-07-27 11:06:00,73.6,34.6,30.14,NNW,329,0.0,5.8,24,0.00,,SCT,0.00,VWS V14.01,2013-07-27 18:06:00,
2013-07-27 11:11:00,73.9,33.8,30.16,NW,312,0.0,5.8,23,0.00,,SCT,0.00,VWS V14.01,2013-07-27 18:11:00,
2013-07-27 11:16:00,74.3,34.1,30.16,West,264,0.0,0.0,23,0.00,,SCT,0.00,VWS V14.01,2013-07-27 18:16:00,
2013-07-27 11:21:00,74.3,34.1,30.16,SE,144,0.0,5.4,23,0.00,,SCT,0.00,VWS V14.01,2013-07-27 18:21:00,
2013-07-27 11:27:00,74.5,34.3,30.16,WNW,283,0.0,5.4,23,0.00,,SCT,0.00,VWS V14.01,2013-07-27 18:27:00,
2013-07-27 11:32:00,74.8,34.6,30.16,NW,314,0.0,2.7,23,0.00,,SCT,0.00,VWS V14.01,2013-07-27 18:32:00,
2013-07-27 11:37:00,75.9,34.4,30.16,North,357,0.0,2.7,22,0.00,,SCT,0.00,VWS V14.01,2013-07-27 18:37:00,
2013-07-27 11:42:00,76.5,34.8,30.14,WSW,248,0.0,5.4,22,0.00,,SCT,0.00,VWS V14.01,2013-07-27 18:42:00,
2013-07-27 11:47:00,76.8,35.1,30.14,WNW,297,4.0,8.1,22,0.00,,SCT,0.00,VWS V14.01,2013-07-27 18:47:00,
2013-07-27 11:52:00,77.0,34.1,30.14,SW,220,0.0,8.1,21,0.00,,SCT,0.00,VWS V14.01,2013-07-27 18:52:00,
2013-07-27 11:57:00,77.5,34.6,30.14,NNW,330,5.4,8.1,21,0.00,,SCT,0.00,VWS V14.01,2013-07-27 18:57:00,
2013-07-27 12:02:00,78.4,35.3,30.14,NNW,336,4.0,4.0,21,0.00,,SCT,0.00,VWS V14.01,2013-07-27 19:02:00,
2013-07-27 12:07:00,79.2,35.9,30.14,West,273,0.0,4.0,21,0.00,,SCT,0.00,VWS V14.01,2013-07-27 19:07:00,
2013-07-27 12:12:00,79.3,34.8,30.14,WSW,248,3.6,5.8,20,0.00,,SCT,0.00,VWS V14.01,2013-07-27 19:12:00,
2013-07-27 12:17:00,79.3,34.8,30.14,WSW,258,0.0,0.0,20,0.00,,SCT,0.00,VWS V14.01,2013-07-27 19:17:00,
2013-07-27 12:22:00,79.7,35.1,30.14,SW,225,0.0,8.7,20,0.00,,SCT,0.00,VWS V14.01,2013-07-27 19:22:00,
2013-07-27 12:27:00,80.2,35.6,30.14,NNW,329,4.0,8.7,20,0.00,,SCT,0.00,VWS V14.01,2013-07-27 19:27:00,
2013-07-27 12:32:00,81.1,36.3,30.14,NNW,334,0.0,5.4,20,0.00,,SCT,0.00,VWS V14.01,2013-07-27 19:32:00,
2013-07-27 12:35:00,81.3,36.5,30.14,NW,319,3.1,5.4,20,0.00,,SCT,0.00,VWS V14.01,2013-07-27 19:35:00,
2013-07-27 12:40:00,81.1,36.3,30.14,South,182,0.0,6.7,20,0.00,,SCT,0.00,VWS V14.01,2013-07-27 19:40:00,
2013-07-27 12:45:00,81.5,36.6,30.14,NW,308,0.0,0.0,20,0.00,,SCT,0.00,VWS V14.01,2013-07-27 19:45:00,
2013-07-27 12:50:00,82.0,35.8,30.14,NNE,24,0.0,4.0,19,0.00,,SCT,0.00,VWS V14.01,2013-07-27 19:50:00,
2013-07-27 12:55:00,82.6,36.2,30.14,East,86,0.0,6.3,19,0.00,,SCT,0.00,VWS V14.01,2013-07-27 19:55:00,
2013-07-27 13:00:00,82.9,36.5,30.14,SSE,150,0.0,0.0,19,0.00,,SCT,0.00,VWS V14.01,2013-07-27 20:00:00,
2013-07-27 13:05:00,83.8,37.2,30.14,NNE,26,0.0,0.0,19,0.00,,SCT,0.00,VWS V14.01,2013-07-27 20:05:00,
2013-07-27 13:06:00,84.0,37.4,30.14,West,278,0.0,0.0,19,0.00,,SCT,0.00,VWS V14.01,2013-07-27 20:06:00,
2013-07-27 13:11:00,84.7,36.6,30.14,WNW,302,5.4,5.4,18,0.00,,SCT,0.00,VWS V14.01,2013-07-27 20:11:00,
2013-07-27 13:17:00,84.4,36.3,30.14,NW,321,8.3,8.3,18,0.00,,SCT,0.00,VWS V14.01,2013-07-27 20:17:00,
2013-07-27 13:22:00,84.7,36.6,30.14,NW,315,0.0,8.3,18,0.00,,SCT,0.00,VWS V14.01,2013-07-27 20:22:00,
2013-07-27 13:27:00,85.1,36.9,30.14,SSW,209,0.0,8.3,18,0.00,,SCT,0.00,VWS V14.01,2013-07-27 20:27:00,
2013-07-27 13:32:00,86.2,37.8,30.14,SSW,199,0.0,3.1,18,0.00,,SCT,0.00,VWS V14.01,2013-07-27 20:32:00,
2013-07-27 13:37:00,86.5,35.1,30.14,NNW,339,0.0,3.6,16,0.00,,SCT,0.00,VWS V14.01,2013-07-27 20:37:00,
2013-07-27 13:42:00,86.7,38.2,30.14,West,271,0.0,3.6,18,0.00,,SCT,0.00,VWS V14.01,2013-07-27 20:42:00,
2013-07-27 13:47:00,87.1,35.5,30.14,NW,311,0.0,3.6,16,0.00,,SCT,0.00,VWS V14.01,2013-07-27 20:47:00,
2013-07-27 13:52:00,87.3,35.6,30.14,NE,55,0.0,10.1,16,0.00,,SCT,0.00,VWS V14.01,2013-07-27 20:52:00,
2013-07-27 13:57:00,87.6,35.9,30.11,NNW,338,0.0,10.1,16,0.00,,SCT,0.00,VWS V14.01,2013-07-27 20:57:00,
2013-07-27 14:02:00,87.8,34.5,30.11,WNW,292,6.3,8.1,15,0.00,,SCT,0.00,VWS V14.01,2013-07-27 21:02:00,
2013-07-27 14:07:00,87.1,35.5,30.11,WNW,283,3.1,8.3,16,0.00,,SCT,0.00,VWS V14.01,2013-07-27 21:07:00,
2013-07-27 14:12:00,86.9,35.3,30.11,NW,311,2.7,8.7,16,0.00,,SCT,0.00,VWS V14.01,2013-07-27 21:12:00,
2013-07-27 14:17:00,87.6,35.9,30.11,WNW,301,5.8,5.8,16,0.00,,SCT,0.00,VWS V14.01,2013-07-27 21:17:00,
2013-07-27 14:22:00,88.5,35.0,30.11,ENE,72,2.2,8.1,15,0.00,,SCT,0.00,VWS V14.01,2013-07-27 21:22:00,
2013-07-27 14:28:00,88.7,35.2,30.11,NNE,12,0.0,9.6,15,0.00,,SCT,0.00,VWS V14.01,2013-07-27 21:28:00,
2013-07-27 14:33:00,88.7,35.2,30.11,West,277,2.7,8.1,15,0.00,,SCT,0.00,VWS V14.01,2013-07-27 21:33:00,
2013-07-27 14:38:00,88.0,34.6,30.11,WSW,244,9.6,9.6,15,0.00,,SCT,0.00,VWS V14.01,2013-07-27 21:38:00,
2013-07-27 14:43:00,87.4,35.8,30.11,West,264,4.9,9.6,16,0.00,,SCT,0.00,VWS V14.01,2013-07-27 21:43:00,
2013-07-27 14:48:00,87.6,35.9,30.11,WSW,256,3.6,5.8,16,0.00,,SCT,0.00,VWS V14.01,2013-07-27 21:48:00,
2013-07-27 14:53:00,88.5,35.0,30.11,NNW,338,3.1,7.2,15,0.00,,SCT,0.00,VWS V14.01,2013-07-27 21:53:00,
2013-07-27 14:58:00,88.9,35.3,30.11,NW,320,3.1,7.2,15,0.00,,SCT,0.00,VWS V14.01,2013-07-27 21:58:00,
2013-07-27 15:03:00,88.7,35.2,30.11,WNW,293,0.0,8.3,15,0.00,,SCT,0.00,VWS V14.01,2013-07-27 22:03:00,
2013-07-27 15:08:00,88.2,34.7,30.11,NW,305,3.1,8.3,15,0.00,,SCT,0.00,VWS V14.01,2013-07-27 22:08:00,
2013-07-27 15:13:00,87.1,35.5,30.11,WNW,282,5.8,8.3,16,0.00,,SCT,0.00,VWS V14.01,2013-07-27 22:13:00,
2013-07-27 15:18:00,87.1,35.5,30.11,West,260,0.0,7.6,16,0.00,,SCT,0.00,VWS V14.01,2013-07-27 22:18:00,
2013-07-27 15:23:00,88.0,34.6,30.11,SW,217,0.0,8.7,15,0.00,,SCT,0.00,VWS V14.01,2013-07-27 22:23:00,
2013-07-27 15:28:00,88.7,35.2,30.11,NNE,33,5.8,8.7,15,0.00,,SCT,0.00,VWS V14.01,2013-07-27 22:28:00,
2013-07-27 15:33:00,88.9,35.3,30.11,SW,214,0.0,8.3,15,0.00,,SCT,0.00,VWS V14.01,2013-07-27 22:33:00,
2013-07-27 15:39:00,89.2,35.6,30.11,NNE,22,2.2,10.5,15,0.00,,SCT,0.00,VWS V14.01,2013-07-27 22:39:00,
2013-07-27 15:44:00,89.2,35.6,30.11,NW,319,2.2,10.5,15,0.00,,SCT,0.00,VWS V14.01,2013-07-27 22:44:00,
2013-07-27 15:49:00,89.2,35.6,30.11,SW,224,0.0,5.8,15,0.00,,SCT,0.00,VWS V14.01,2013-07-27 22:49:00,
2013-07-27 15:54:00,89.4,35.7,30.08,WNW,302,8.3,8.3,15,0.00,,SCT,0.00,VWS V14.01,2013-07-27 22:54:00,
2013-07-27 15:59:00,89.6,35.9,30.08,North,3,0.0,8.3,15,0.00,,SCT,0.00,VWS V14.01,2013-07-27 22:59:00,
2013-07-27 16:04:00,89.8,36.0,30.08,NNW,328,0.0,8.3,15,0.00,,SCT,0.00,VWS V14.01,2013-07-27 23:04:00,
2013-07-27 16:09:00,89.6,35.9,30.08,West,269,4.9,8.3,15,0.00,,SCT,0.00,VWS V14.01,2013-07-27 23:09:00,
2013-07-27 16:14:00,89.4,35.7,30.08,NNW,334,4.0,8.3,15,0.00,,SCT,0.00,VWS V14.01,2013-07-27 23:14:00,
2013-07-27 16:19:00,90.0,36.2,30.08,West,273,4.5,10.1,15,0.00,,SCT,0.00,VWS V14.01,2013-07-27 23:19:00,
2013-07-27 16:24:00,90.3,36.5,30.08,SSW,208,0.0,10.1,15,0.00,,SCT,0.00,VWS V14.01,2013-07-27 23:24:00,
2013-07-27 16:29:00,90.1,36.3,30.08,NW,315,3.6,10.5,15,0.00,,SCT,0.00,VWS V14.01,2013-07-27 23:29:00,
2013-07-27 16:34:00,89.8,36.0,30.08,SE,141,0.0,6.3,15,0.00,,SCT,0.00,VWS V14.01,2013-07-27 23:34:00,
2013-07-27 16:39:00,90.0,36.2,30.08,East,84,0.0,13.2,15,0.00,,SCT,0.00,VWS V14.01,2013-07-27 23:39:00,
2013-07-27 16:44:00,89.6,39.1,30.08,ENE,77,0.0,13.2,17,0.00,,SCT,0.00,VWS V14.01,2013-07-27 23:44:00,
2013-07-27 16:50:00,90.0,39.3,30.08,NNW,334,5.4,5.4,17,0.00,,SCT,0.00,VWS V14.01,2013-07-27 23:50:00,
2013-07-27 16:55:00,90.0,39.3,30.08,West,261,4.0,7.6,17,0.00,,SCT,0.00,VWS V14.01,2013-07-27 23:55:00,
2013-07-27 17:00:00,90.0,39.3,30.08,North,349,0.0,8.3,17,0.00,,SCT,0.00,VWS V14.01,2013-07-28 00:00:00,
2013-07-27 17:05:00,90.3,39.6,30.08,West,260,4.0,4.0,17,0.00,,SCT,0.00,VWS V14.01,2013-07-28 00:05:00,
2013-07-27 17:10:00,90.1,39.5,30.08,NNW,327,4.9,7.6,17,0.00,,SCT,0.00,VWS V14.01,2013-07-28 00:10:00,
2013-07-27 17:15:00,90.1,39.5,30.08,West,271,0.0,3.6,17,0.00,,SCT,0.00,VWS V14.01,2013-07-28 00:15:00,
2013-07-27 17:20:00,89.6,39.1,30.08,ENE,70,6.3,13.6,17,0.00,,SCT,0.00,VWS V14.01,2013-07-28 00:20:00,
2013-07-27 17:25:00,89.6,39.1,30.08,NW,307,4.0,13.6,17,0.00,,SCT,0.00,VWS V14.01,2013-07-28 00:25:00,
2013-07-27 17:30:00,89.2,40.2,30.08,West,266,5.4,7.2,18,0.00,,SCT,0.00,VWS V14.01,2013-07-28 00:30:00,
2013-07-27 17:35:00,88.9,39.9,30.08,NW,309,5.8,10.1,18,0.00,,SCT,0.00,VWS V14.01,2013-07-28 00:35:00,
2013-07-27 17:36:00,88.7,39.8,30.08,NNW,330,10.1,10.1,18,0.00,,SCT,0.00,VWS V14.01,2013-07-28 00:36:00,
2013-07-27 17:42:00,88.0,39.2,30.08,West,267,0.0,11.0,18,0.00,,SCT,0.00,VWS V14.01,2013-07-28 00:42:00,
2013-07-27 17:47:00,87.8,39.1,30.08,West,266,4.0,7.2,18,0.00,,SCT,0.00,VWS V14.01,2013-07-28 00:47:00,
2013-07-27 17:52:00,87.8,39.1,30.08,WSW,242,0.0,10.1,18,0.00,,SCT,0.00,VWS V14.01,2013-07-28 00:52:00,
2013-07-27 17:57:00,87.3,38.6,30.08,West,267,0.0,10.1,18,0.00,,SCT,0.00,VWS V14.01,2013-07-28 00:57:00,
2013-07-27 18:02:00,86.9,38.3,30.08,NW,310,0.0,5.4,18,0.00,,SCT,0.00,VWS V14.01,2013-07-28 01:02:00,
2013-07-27 18:07:00,86.5,38.0,30.08,NNW,331,5.8,8.1,18,0.00,,SCT,0.00,VWS V14.01,2013-07-28 01:07:00,
2013-07-27 18:12:00,86.2,37.8,30.08,WNW,302,5.8,8.1,18,0.00,,SCT,0.00,VWS V14.01,2013-07-28 01:12:00,
2013-07-27 18:17:00,86.2,37.8,30.08,WNW,295,0.0,5.4,18,0.00,,SCT,0.00,VWS V14.01,2013-07-28 01:17:00,
2013-07-27 18:22:00,86.0,37.6,30.08,WNW,295,4.0,8.7,18,0.00,,SCT,0.00,VWS V14.01,2013-07-28 01:22:00,
2013-07-27 18:27:00,84.7,38.0,30.08,NNW,341,0.0,8.7,19,0.00,,SCT,0.00,VWS V14.01,2013-07-28 01:27:00,
2013-07-27 18:32:00,84.0,37.4,30.08,SW,236,4.0,8.7,19,0.00,,SCT,0.00,VWS V14.01,2013-07-28 01:32:00,
2013-07-27 18:37:00,84.0,37.4,30.08,SW,226,5.4,8.7,19,0.00,,SCT,0.00,VWS V14.01,2013-07-28 01:37:00,
2013-07-27 18:42:00,83.8,37.2,30.08,NNW,336,4.0,8.7,19,0.00,,SCT,0.00,VWS V14.01,2013-07-28 01:42:00,
2013-07-27 18:47:00,83.7,37.1,30.08,NW,320,3.6,7.6,19,0.00,,SCT,0.00,VWS V14.01,2013-07-28 01:47:00,
2013-07-27 18:52:00,83.5,36.9,30.08,NNW,333,3.1,8.7,19,0.00,,SCT,0.00,VWS V14.01,2013-07-28 01:52:00,
2013-07-27 18:58:00,83.5,38.2,30.08,NW,311,2.7,8.7,20,0.00,,SCT,0.00,VWS V14.01,2013-07-28 01:58:00,
2013-07-27 19:03:00,83.5,38.2,30.08,South,190,0.0,6.3,20,0.00,,SCT,0.00,VWS V14.01,2013-07-28 02:03:00,
2013-07-27 19:08:00,83.3,38.1,30.08,NNW,336,7.2,7.2,20,0.00,,SCT,0.00,VWS V14.01,2013-07-28 02:08:00,
2013-07-27 19:13:00,82.9,37.8,30.08,NW,322,3.6,10.1,20,0.00,,SCT,0.00,VWS V14.01,2013-07-28 02:13:00,
2013-07-27 19:18:00,82.2,37.2,30.08,NNW,339,0.0,8.3,20,0.00,,SCT,0.00,VWS V14.01,2013-07-28 02:18:00,
2013-07-27 19:23:00,81.9,36.9,30.08,NW,307,0.0,8.3,20,0.00,,SCT,0.00,VWS V14.01,2013-07-28 02:23:00,
2013-07-27 19:28:00,81.7,36.8,30.08,West,269,4.0,8.3,20,0.00,,SCT,0.00,VWS V14.01,2013-07-28 02:28:00,
2013-07-27 19:33:00,81.3,36.5,30.08,NW,325,0.0,0.0,20,0.00,,SCT,0.00,VWS V14.01,2013-07-28 02:33:00,
2013-07-27 19:38:00,81.1,36.3,30.08,NNW,341,0.0,7.6,20,0.00,,SCT,0.00,VWS V14.01,2013-07-28 02:38:00,
2013-07-27 19:43:00,80.8,37.2,30.08,WNW,303,4.5,7.6,21,0.00,,SCT,0.00,VWS V14.01,2013-07-28 02:43:00,
2013-07-27 19:48:00,80.1,36.7,30.08,WNW,300,0.0,7.6,21,0.00,,SCT,0.00,VWS V14.01,2013-07-28 02:48:00,
2013-07-27 19:53:00,79.5,36.2,30.08,West,264,0.0,7.6,21,0.00,,SCT,0.00,VWS V14.01,2013-07-28 02:53:00,
2013-07-27 19:58:00,79.2,35.9,30.08,NW,314,0.0,7.6,21,0.00,,SCT,0.00,VWS V14.01,2013-07-28 02:58:00,
2013-07-27 20:03:00,78.4,36.5,30.08,WSW,241,0.0,4.0,22,0.00,,SCT,0.00,VWS V14.01,2013-07-28 03:03:00,
2013-07-27 20:08:00,77.5,35.7,30.08,WNW,287,0.0,5.8,22,0.00,,SCT,0.00,VWS V14.01,2013-07-28 03:08:00,
2013-07-27 20:13:00,77.0,35.3,30.08,NW,325,0.0,5.8,22,0.00,,SCT,0.00,VWS V14.01,2013-07-28 03:13:00,
2013-07-27 20:18:00,76.6,36.1,30.08,NNW,335,0.0,4.0,23,0.00,,SCT,0.00,VWS V14.01,2013-07-28 03:18:00,
2013-07-27 20:24:00,76.1,35.7,30.08,WNW,298,0.0,5.8,23,0.00,,SCT,0.00,VWS V14.01,2013-07-28 03:24:00,
2013-07-27 20:29:00,75.4,35.0,30.08,NNW,328,0.0,5.8,23,0.00,,SCT,0.00,VWS V14.01,2013-07-28 03:29:00,
2013-07-27 20:34:00,74.8,35.7,30.08,NNW,339,0.0,0.0,24,0.00,,SCT,0.00,VWS V14.01,2013-07-28 03:34:00,
2013-07-27 20:39:00,74.5,36.4,30.08,NW,322,0.0,0.0,25,0.00,,SCT,0.00,VWS V14.01,2013-07-28 03:39:00,
2013-07-27 20:44:00,73.9,35.9,30.08,NNW,327,0.0,0.0,25,0.00,,SCT,0.00,VWS V14.01,2013-07-28 03:44:00,
2013-07-27 20:49:00,73.4,35.5,30.08,NNW,343,0.0,0.0,25,0.00,,SCT,0.00,VWS V14.01,2013-07-28 03:49:00,
2013-07-27 20:54:00,72.9,36.0,30.08,NNW,335,0.0,3.1,26,0.00,,SCT,0.00,VWS V14.01,2013-07-28 03:54:00,
2013-07-27 20:59:00,72.3,35.5,30.08,NNW,334,4.9,5.8,26,0.00,,SCT,0.00,VWS V14.01,2013-07-28 03:59:00,
2013-07-27 21:01:00,72.0,35.2,30.08,WNW,287,6.3,6.3,26,0.00,,SCT,0.00,VWS V14.01,2013-07-28 04:01:00,
2013-07-27 21:02:00,72.0,35.2,30.08,NNW,329,0.0,6.3,26,0.00,,SCT,0.00,VWS V14.01,2013-07-28 04:02:00,
2013-07-27 21:03:00,71.8,35.1,30.08,NW,310,0.0,6.3,26,0.00,,SCT,0.00,VWS V14.01,2013-07-28 04:03:00,
2013-07-27 21:08:00,71.2,34.6,30.08,NW,319,0.0,8.1,26,0.00,,SCT,0.00,VWS V14.01,2013-07-28 04:08:00,
2013-07-27 21:13:00,70.9,35.3,30.08,NW,325,0.0,8.1,27,0.00,,SCT,0.00,VWS V14.01,2013-07-28 04:13:00,
2013-07-27 21:18:00,70.5,35.0,30.08,West,263,4.0,5.4,27,0.00,,SCT,0.00,VWS V14.01,2013-07-28 04:18:00,
2013-07-27 21:23:00,70.2,34.7,30.08,NW,324,3.1,7.2,27,0.00,,SCT,0.00,VWS V14.01,2013-07-28 04:23:00,
2013-07-27 21:28:00,69.6,35.1,30.08,NW,321,0.0,8.1,28,0.00,,SCT,0.00,VWS V14.01,2013-07-28 04:28:00,
2013-07-27 21:33:00,69.3,35.7,30.08,WNW,295,0.0,7.6,29,0.00,,SCT,0.00,VWS V14.01,2013-07-28 04:33:00,
2013-07-27 21:38:00,68.9,35.4,30.08,NNW,331,0.0,7.6,29,0.00,,SCT,0.00,VWS V14.01,2013-07-28 04:38:00,
2013-07-27 21:43:00,68.7,36.1,30.08,NNW,331,0.0,7.6,30,0.00,,SCT,0.00,VWS V14.01,2013-07-28 04:43:00,
2013-07-27 21:48:00,68.5,35.9,30.08,NNW,330,0.0,0.0,30,0.00,,SCT,0.00,VWS V14.01,2013-07-28 04:48:00,
2013-07-27 21:53:00,68.2,36.4,30.08,NW,320,0.0,4.0,31,0.00,,SCT,0.00,VWS V14.01,2013-07-28 04:53:00,
2013-07-27 21:59:00,67.8,36.9,30.08,NW,326,0.0,4.0,32,0.00,,SCT,0.00,VWS V14.01,2013-07-28 04:59:00,
2013-07-27 22:04:00,67.5,36.6,30.08,NW,311,0.0,5.8,32,0.00,,SCT,0.00,VWS V14.01,2013-07-28 05:04:00,
2013-07-27 22:09:00,67.3,36.4,30.08,NW,320,0.0,5.8,32,0.00,,SCT,0.00,VWS V14.01,2013-07-28 05:09:00,
2013-07-27 22:14:00,67.1,37.1,30.08,NW,318,0.0,5.8,33,0.00,,SCT,0.00,VWS V14.01,2013-07-28 05:14:00,
2013-07-27 22:19:00,66.7,36.8,30.08,NW,324,0.0,0.0,33,0.00,,SCT,0.00,VWS V14.01,2013-07-28 05:19:00,
2013-07-27 22:24:00,66.4,36.4,30.05,NW,317,0.0,4.0,33,0.00,,SCT,0.00,VWS V14.01,2013-07-28 05:24:00,
2013-07-27 22:29:00,66.2,36.3,30.05,NW,316,0.0,4.0,33,0.00,,SCT,0.00,VWS V14.01,2013-07-28 05:29:00,
2013-07-27 22:34:00,66.4,36.4,30.05,NW,316,0.0,0.0,33,0.00,,SCT,0.00,VWS V14.01,2013-07-28 05:34:00,
2013-07-27 22:39:00,66.2,36.3,30.08,NW,317,0.0,0.0,33,0.00,,SCT,0.00,VWS V14.01,2013-07-28 05:39:00,
2013-07-27 22:44:00,65.8,36.0,30.08,NW,322,0.0,0.0,33,0.00,,SCT,0.00,VWS V14.01,2013-07-28 05:44:00,
2013-07-27 22:49:00,65.8,36.0,30.08,NW,322,0.0,0.0,33,0.00,,SCT,0.00,VWS V14.01,2013-07-28 05:49:00,
2013-07-27 22:54:00,65.7,35.8,30.08,NW,322,0.0,0.0,33,0.00,,SCT,0.00,VWS V14.01,2013-07-28 05:54:00,
2013-07-27 22:59:00,65.7,35.8,30.08,NW,322,0.0,0.0,33,0.00,,SCT,0.00,VWS V14.01,2013-07-28 05:59:00,
2013-07-27 23:05:00,65.7,35.8,30.08,NW,322,0.0,0.0,33,0.00,,SCT,0.00,VWS V14.01,2013-07-28 06:05:00,
2013-07-27 23:10:00,65.5,35.6,30.08,NW,322,0.0,0.0,33,0.00,,SCT,0.00,VWS V14.01,2013-07-28 06:10:00,
2013-07-27 23:15:00,65.3,35.5,30.08,NW,322,0.0,0.0,33,0.00,,SCT,0.00,VWS V14.01,2013-07-28 06:15:00,
2013-07-27 23:20:00,65.1,36.1,30.08,North,0,0.0,0.0,34,0.00,,SCT,0.00,VWS V14.01,2013-07-28 06:20:00,
2013-07-27 23:25:00,64.8,35.8,30.08,NNE,15,0.0,0.0,34,0.00,,SCT,0.00,VWS V14.01,2013-07-28 06:25:00,
2013-07-27 23:30:00,64.2,36.0,30.08,ESE,107,0.0,0.0,35,0.00,,SCT,0.00,VWS V14.01,2013-07-28 06:30:00,
2013-07-27 23:35:00,64.0,35.1,30.08,East,101,0.0,0.0,34,0.00,,SCT,0.00,VWS V14.01,2013-07-28 06:35:00,
2013-07-27 23:40:00,63.9,35.0,30.08,East,101,0.0,0.0,34,0.00,,SCT,0.00,VWS V14.01,2013-07-28 06:40:00,
2013-07-27 23:45:00,63.7,34.8,30.08,East,101,0.0,0.0,34,0.00,,SCT,0.00,VWS V14.01,2013-07-28 06:45:00,
2013-07-27 23:50:00,63.5,35.4,30.08,East,101,0.0,0.0,35,0.00,,SCT,0.00,VWS V14.01,2013-07-28 06:50:00,
2013-07-27 23:55:00,63.3,35.2,30.08,East,101,0.0,0.0,35,0.00,,SCT,0.00,VWS V14.01,2013-07-28 06:55:00,